WP3OF Weather Reports


Display with metric or nautical units.
time (UTC)temp
F
wind
direction
speed
MPH
gust
MPH
rain 1hr
in
rain 24hr
in
rain mn
in
humidity
%
barometer
mb
20260505062349 0 206 3.0 3.0 0.00 0.00 0.00 1018.1
20260505061846 0 193 2.0 3.0 0.00 0.00 0.00 1018.2
20260505061344 0 181 2.0 3.0 0.00 0.00 0.00 1018.2
20260505060842 0 202 3.0 3.0 0.00 0.00 0.00 1018.3
20260505060338 0 189 3.0 3.0 0.00 0.00 0.00 1018.4
20260505055834 0 178 3.0 3.0 0.00 0.00 0.00 1018.4
20260505055330 0 177 2.0 3.0 0.00 0.00 0.00 1018.4
20260505054828 0 179 2.0 2.0 0.00 0.00 0.00 1018.2
20260505054325 0 166 1.0 2.0 0.00 0.00 0.00 1018.6
20260505053823 0 170 2.0 2.0 0.00 0.00 0.00 1018.3
20260505053320 0 178 2.0 3.0 0.00 0.00 0.00 1018.6
20260505052817 0 174 3.0 6.0 0.00 0.00 0.00 1018.6
20260505052314 0 172 4.0 4.0 0.00 0.00 0.00 1018.7
20260505051810 0 189 4.0 4.0 0.00 0.00 0.00 1018.7
20260505051308 0 175 4.0 4.0 0.00 0.00 0.00 1018.5
20260505050806 0 189 6.0 8.0 0.00 0.00 0.00 1018.9
20260505050305 0 194 8.0 9.0 0.00 0.00 0.00 1019.0
20260505041734 0 188 4.0 4.0 0.00 0.00 0.00 1019.2
20260505041231 0 188 4.0 6.0 0.00 0.00 0.00 1019.4
20260505040729 0 186 5.0 6.0 0.00 0.00 0.00 1019.2
20260505040226 0 181 4.0 6.0 0.00 0.00 0.00 1019.3
20260505035723 0 170 3.0 4.0 0.00 0.00 0.00 1019.6
20260505035219 0 179 2.0 3.0 0.00 0.00 0.00 1019.2
20260505034715 0 178 3.0 3.0 0.00 0.00 0.00 1019.2
20260505034212 0 150 1.0 2.0 0.00 0.00 0.00 1019.3
20260505033708 0 175 2.0 3.0 0.00 0.00 0.00 1019.4
20260505033207 0 173 2.0 4.0 0.00 0.00 0.00 1019.4
20260505032705 0 173 2.0 2.0 0.00 0.00 0.00 1019.4
20260505032200 0 169 2.0 3.0 0.00 0.00 0.00 1019.5
20260505031658 0 167 1.0 2.0 0.00 0.00 0.00 1019.7
20260505031154 0 166 1.0 1.0 0.00 0.00 0.00 1019.7
20260505030651 0 171 1.0 2.0 0.00 0.00 0.00 1019.7
20260505030147 0 178 1.0 1.0 0.00 0.00 0.00 1019.8
20260505025643 0 167 0.0 1.0 0.00 0.00 0.00 1019.5
20260505025142 0 166 0.0 2.0 0.00 0.00 0.00 1019.8
20260505024639 0 173 2.0 2.0 0.00 0.00 0.00 1019.5
20260505024136 0 179 4.0 4.0 0.00 0.00 0.00 1019.5
20260505023633 0 183 4.0 6.0 0.00 0.00 0.00 1019.4
20260505023131 0 176 2.0 6.0 0.00 0.00 0.00 1019.6
20260505022628 0 191 5.0 6.0 0.00 0.00 0.00 1019.5
20260505022125 0 197 4.0 4.0 0.00 0.00 0.00 1019.4
20260505021621 0 186 4.0 4.0 0.00 0.00 0.00 1019.2
20260505021118 0 188 5.0 6.0 0.00 0.00 0.00 1019.4
20260505020614 0 179 4.0 4.0 0.00 0.00 0.00 1019.4
20260505020110 0 175 2.0 4.0 0.00 0.00 0.00 1019.4
20260505015607 0 191 4.0 4.0 0.00 0.00 0.00 1019.6
20260505015104 0 195 3.0 3.0 0.00 0.00 0.00 1019.2
20260505014601 0 192 2.0 3.0 0.00 0.00 0.00 1019.2
20260505014058 0 193 3.0 3.0 0.00 0.00 0.00 1019.4
20260505013555 0 237 2.0 3.0 0.00 0.00 0.00 1019.4
20260505013052 0 226 2.0 2.0 0.00 0.00 0.00 1019.2
20260505012550 0 179 1.0 2.0 0.00 0.00 0.00 1019.4
20260505012047 0 188 1.0 3.0 0.00 0.00 0.00 1019.4
20260505011542 0 191 4.0 4.0 0.00 0.00 0.00 1018.9
20260505011040 0 200 3.0 3.0 0.00 0.00 0.00 1019.1
20260505010535 0 203 3.0 4.0 0.00 0.00 0.00 1019.0
20260505010032 0 223 3.0 4.0 0.00 0.00 0.00 1018.9
20260505005528 0 223 2.0 3.0 0.00 0.00 0.00 1019.0
20260505005026 0 220 2.0 3.0 0.00 0.00 0.00 1018.9
20260505004523 0 224 2.0 3.0 0.00 0.00 0.00 1018.9
20260505004020 0 209 3.0 3.0 0.00 0.00 0.00 1018.7
20260505003517 0 240 2.0 2.0 0.00 0.00 0.00 1018.6
20260505003014 0 261 2.0 3.0 0.00 0.00 0.00 1018.5
20260505002509 0 269 2.0 3.0 0.00 0.00 0.00 1018.2
20260505002008 0 234 2.0 3.0 0.00 0.00 0.00 1018.3
20260505001505 0 259 4.0 4.0 0.00 0.00 0.00 1018.7
20260505001002 0 232 3.0 3.0 0.00 0.00 0.00 1018.3
20260505000500 0 240 3.0 4.0 0.00 0.00 0.00 1018.2
20260504235956 0 219 2.0 4.0 0.00 0.00 0.00 1018.4
20260504235454 0 231 4.0 4.0 0.00 0.00 0.00 1018.5
20260504234950 0 250 4.0 6.0 0.00 0.00 0.00 1018.3
20260504234447 0 226 4.0 6.0 0.00 0.00 0.00 1018.4
20260504233944 0 246 4.0 6.0 0.00 0.00 0.00 1018.1
20260504233439 0 218 5.0 7.0 0.00 0.00 0.00 1018.2
20260504232937 0 227 5.0 6.0 0.00 0.00 0.00 1018.0
20260504232434 0 232 6.0 8.0 0.00 0.00 0.00 1017.8
20260504231931 0 243 7.0 7.0 0.00 0.00 0.00 1018.2
20260504231427 0 236 4.0 6.0 0.00 0.00 0.00 1018.3
20260504230923 0 234 5.0 7.0 0.00 0.00 0.00 1018.1
20260504230420 0 230 4.0 7.0 0.00 0.00 0.00 1017.8
20260504225919 0 244 6.0 8.0 0.00 0.00 0.00 1017.8
20260504225416 0 264 5.0 8.0 0.00 0.00 0.00 1017.7
20260504224913 0 246 6.0 8.0 0.00 0.00 0.00 1017.7
20260504224409 0 263 5.0 8.0 0.00 0.00 0.00 1017.9
20260504223907 0 254 5.0 7.0 0.00 0.00 0.00 1017.6
20260504223402 0 300 5.0 7.0 0.00 0.00 0.00 1017.6
20260504222858 0 272 3.0 4.0 0.00 0.00 0.00 1017.6
20260504222355 0 280 4.0 4.0 0.00 0.00 0.00 1017.5
20260504221854 0 308 3.0 3.0 0.00 0.00 0.00 1017.2
20260504221350 0 328 1.0 2.0 0.00 0.00 0.00 1017.2
20260504220848 0 334 3.0 4.0 0.00 0.00 0.00 1017.0
20260504220344 0 334 4.0 6.0 0.00 0.00 0.00 1017.3
20260504215841 0 252 6.0 7.0 0.00 0.00 0.00 1017.2
20260504215338 0 84 3.0 3.0 0.00 0.00 0.00 1016.9
20260504214834 0 335 3.0 4.0 0.00 0.00 0.00 1016.6
20260504214331 0 0 1.0 4.0 0.00 0.00 0.00 1016.7
20260504213828 0 63 2.0 4.0 0.00 0.00 0.00 1016.9
20260504213323 0 34 2.0 4.0 0.00 0.00 0.00 1017.0
20260504212821 0 19 4.0 6.0 0.00 0.00 0.00 1016.9
20260504212317 0 329 2.0 3.0 0.00 0.00 0.00 1016.6
20260504211815 0 49 5.0 6.0 0.00 0.00 0.00 1016.7
20260504211311 0 40 6.0 7.0 0.00 0.00 0.00 1016.9
20260504210808 0 68 4.0 4.0 0.00 0.00 0.00 1016.8
20260504210306 0 40 4.0 4.0 0.00 0.00 0.00 1016.6
20260504205803 0 41 7.0 8.0 0.00 0.00 0.00 1016.8
20260504205300 0 69 2.0 6.0 0.00 0.00 0.00 1016.7
20260504204758 0 61 1.0 6.0 0.00 0.00 0.00 1016.6
20260504204256 0 138 2.0 6.0 0.00 0.00 0.00 1016.6
20260504203755 0 209 2.0 3.0 0.00 0.00 0.00 1016.8
20260504203252 0 76 7.0 9.0 0.00 0.00 0.00 1016.7
20260504202746 0 85 3.0 6.0 0.00 0.00 0.00 1016.6
20260504202244 0 28 3.0 7.0 0.00 0.00 0.00 1016.7
20260504201741 0 60 5.0 10.0 0.00 0.00 0.00 1016.5
20260504201238 0 81 9.0 9.0 0.00 0.00 0.00 1016.4
20260504200736 0 60 4.0 8.0 0.00 0.00 0.00 1016.4
20260504200231 0 39 4.0 6.0 0.00 0.00 0.00 1016.9
20260504195728 0 125 4.0 8.0 0.00 0.00 0.00 1016.7
20260504195224 0 159 4.0 10.0 0.00 0.00 0.00 1016.5
20260504194721 0 70 13.0 16.0 0.00 0.00 0.00 1016.7
20260504194217 0 87 7.0 10.0 0.00 0.00 0.00 1016.4
20260504193714 0 73 10.0 11.0 0.00 0.00 0.00 1016.8
20260504193212 0 55 3.0 8.0 0.00 0.00 0.00 1016.7
20260504192710 0 58 5.0 6.0 0.00 0.00 0.00 1016.8
20260504192208 0 183 2.0 4.0 0.00 0.00 0.00 1017.0
20260504191706 0 328 4.0 7.0 0.00 0.00 0.00 1017.0
20260504191202 0 78 3.0 3.0 0.00 0.00 0.00 1016.7
20260504190658 0 33 12.0 15.0 0.00 0.00 0.00 1016.7
20260504190154 0 48 9.0 14.0 0.00 0.00 0.00 1016.7
20260504185651 0 45 8.0 11.0 0.00 0.00 0.00 1016.8
20260504185147 0 26 9.0 9.0 0.00 0.00 0.00 1016.7
20260504184644 0 40 7.0 13.0 0.00 0.00 0.00 1016.7
20260504184139 0 44 11.0 13.0 0.00 0.00 0.00 1016.7
20260504183636 0 43 10.0 15.0 0.00 0.00 0.00 1017.0
20260504183133 0 31 12.0 16.0 0.00 0.00 0.00 1017.0
20260504182631 0 37 10.0 13.0 0.00 0.00 0.00 1017.2
20260504182128 0 47 10.0 11.0 0.00 0.00 0.00 1017.0
20260504181626 0 53 10.0 13.0 0.00 0.00 0.00 1017.1
20260504181123 0 36 9.0 14.0 0.00 0.00 0.00 1017.1
20260504180622 0 21 7.0 13.0 0.00 0.00 0.00 1017.3
20260504180121 0 62 14.0 16.0 0.00 0.00 0.00 1017.4
20260504175617 0 50 11.0 19.0 0.00 0.00 0.00 1017.4
20260504175114 0 31 17.0 18.0 0.00 0.00 0.00 1017.4
20260504174612 0 36 11.0 15.0 0.00 0.00 0.00 1017.6
20260504174108 0 26 8.0 13.0 0.00 0.00 0.00 1017.7
20260504173605 0 27 12.0 16.0 0.00 0.00 0.00 1017.8
20260504173103 0 357 11.0 13.0 0.00 0.00 0.00 1017.8
20260504172559 0 26 13.0 15.0 0.00 0.00 0.00 1017.8
20260504172056 0 42 11.0 13.0 0.00 0.00 0.00 1017.8
20260504171552 0 17 6.0 8.0 0.00 0.00 0.00 1017.9
20260504171049 0 22 4.0 13.0 0.00 0.00 0.00 1017.8
20260504170545 0 59 10.0 13.0 0.00 0.00 0.00 1017.7
20260504150929 0 31 14.0 16.0 0.00 0.00 0.00 1018.9
20260504150426 0 36 11.0 14.0 0.00 0.00 0.00 1018.9
20260504140852 0 101 11.0 14.0 0.00 0.00 0.00 1019.0
20260504140348 0 90 9.0 13.0 0.00 0.00 0.00 1019.3
20260504130817 0 70 7.0 15.0 0.00 0.00 0.00 1018.6
20260504130314 0 107 10.0 14.0 0.00 0.00 0.00 1018.8
20260504120237 0 88 6.0 7.0 0.00 0.00 0.00 1019.2
20260504110704 0 134 4.0 6.0 0.00 0.00 0.00 1019.1
20260504110201 0 111 2.0 4.0 0.00 0.00 0.00 1019.1
20260504100125 0 150 5.0 6.0 0.00 0.00 0.00 1018.8
20260504081518 0 141 5.0 7.0 0.00 0.00 0.00 1017.8
20260504081013 0 134 6.0 8.0 0.00 0.00 0.00 1018.0
20260504080510 0 139 6.0 8.0 0.00 0.00 0.00 1018.0